| time (UTC) | temp F | wind direction | speed MPH | gust MPH | rain 1hr in | rain 24hr in | rain mn in | humidity % | barometer mb |
| 20260503220104 | 52 | 0 | 0.0 | 0.0 | 0.06 | 0.44 | 0.23 | 97 | 1013.6 |
| 20260503214554 | 52 | 0 | 0.0 | 0.0 | 0.06 | 0.44 | 0.23 | 97 | 1013.3 |
| 20260503213050 | 52 | 0 | 0.0 | 0.0 | 0.08 | 0.44 | 0.23 | 97 | 1013.1 |
| 20260503211553 | 52 | 0 | 0.0 | 0.0 | 0.07 | 0.48 | 0.22 | 97 | 1012.7 |
| 20260503210058 | 52 | 0 | 0.0 | 0.0 | 0.03 | 0.43 | 0.17 | 97 | 1012.5 |
| 20260503204606 | 52 | 0 | 0.0 | 0.0 | 0.04 | 0.43 | 0.17 | 97 | 1012.4 |
| 20260503203106 | 52 | 0 | 0.0 | 0.0 | 0.02 | 0.40 | 0.14 | 96 | 1011.9 |
| 20260503201556 | 52 | 0 | 0.0 | 0.0 | 0.03 | 0.41 | 0.14 | 96 | 1012.0 |
| 20260503200053 | 52 | 0 | 0.0 | 0.0 | 0.03 | 0.40 | 0.13 | 96 | 1011.5 |
| 20260503194608 | 52 | 0 | 0.0 | 0.0 | 0.02 | 0.39 | 0.12 | 96 | 1011.6 |
| 20260503193054 | 52 | 0 | 0.0 | 0.0 | 0.02 | 0.39 | 0.12 | 96 | 1011.4 |
| 20260503191601 | 52 | 0 | 0.0 | 0.0 | 0.00 | 0.37 | 0.11 | 96 | 1011.3 |
| 20260503190059 | 52 | 0 | 0.0 | 0.0 | 0.00 | 0.37 | 0.10 | 96 | 1011.1 |
| 20260503184557 | 52 | 0 | 0.0 | 0.0 | 0.00 | 0.37 | 0.10 | 96 | 1011.0 |
| 20260503183105 | 52 | 0 | 0.0 | 0.0 | 0.00 | 0.37 | 0.10 | 96 | 1011.2 |
| 20260503181552 | 52 | 0 | 0.0 | 0.0 | 0.00 | 0.37 | 0.10 | 96 | 1011.0 |
| 20260503180107 | 52 | 0 | 0.0 | 0.0 | 0.00 | 0.37 | 0.10 | 96 | 1010.9 |
| 20260503174557 | 52 | 0 | 0.0 | 0.0 | 0.00 | 0.37 | 0.10 | 96 | 1011.2 |
| 20260503173142 | 52 | 0 | 0.0 | 0.0 | 0.00 | 0.37 | 0.10 | 96 | 1011.1 |
| 20260503171553 | 52 | 0 | 0.0 | 0.0 | 0.00 | 0.37 | 0.10 | 96 | 1011.3 |
| 20260503130104 | 52 | 0 | 0.0 | 0.0 | 0.00 | 0.25 | 0.25 | 91 | 1012.5 |
| 20260503100107 | 51 | 0 | 0.0 | 0.0 | 0.00 | 0.25 | 0.25 | 95 | 1012.7 |
| 20260503081558 | 53 | 0 | 0.0 | 0.0 | 0.00 | 0.20 | 0.20 | 92 | 1011.5 |
| 20260503071554 | 53 | 0 | 0.0 | 0.0 | 0.00 | 0.21 | 0.19 | 94 | 1011.0 |
| 20260503054557 | 52 | 0 | 0.0 | 0.0 | 0.05 | 0.20 | 0.17 | 95 | 1011.0 |
| 20260503053052 | 51 | 0 | 0.0 | 0.0 | 0.05 | 0.20 | 0.17 | 95 | 1011.0 |
| 20260503051556 | 51 | 0 | 0.0 | 0.0 | 0.03 | 0.24 | 0.14 | 93 | 1011.4 |
| 20260503050053 | 52 | 0 | 0.0 | 0.0 | 0.01 | 0.22 | 0.13 | 92 | 1011.3 |
| 20260503044557 | 53 | 0 | 0.0 | 0.0 | 0.00 | 0.21 | 0.11 | 89 | 1011.1 |
| 20260503043108 | 54 | 0 | 0.0 | 0.0 | 0.00 | 0.21 | 0.11 | 86 | 1010.8 |
| 20260503041558 | 55 | 0 | 0.0 | 0.0 | 0.03 | 0.26 | 0.11 | 88 | 1011.0 |
| 20260503040059 | 54 | 0 | 0.0 | 0.0 | 0.03 | 0.26 | 0.11 | 90 | 1011.1 |
| 20260503034558 | 54 | 0 | 0.0 | 0.0 | 0.02 | 0.25 | 0.11 | 93 | 1010.9 |
| 20260503033053 | 52 | 0 | 0.0 | 0.0 | 0.02 | 0.25 | 0.11 | 95 | 1011.0 |
| 20260503031608 | 52 | 0 | 0.0 | 0.0 | 0.00 | 0.25 | 0.08 | 92 | 1011.2 |
| 20260503024557 | 52 | 0 | 0.0 | 0.0 | 0.01 | 0.25 | 0.08 | 92 | 1011.3 |
| 20260503023056 | 53 | 0 | 0.0 | 0.0 | 0.01 | 0.25 | 0.08 | 91 | 1011.5 |
| 20260503021555 | 52 | 0 | 0.0 | 0.0 | 0.02 | 0.25 | 0.08 | 93 | 1011.4 |
| 20260503020059 | 52 | 0 | 0.0 | 0.0 | 0.02 | 0.25 | 0.08 | 91 | 1011.5 |
| 20260503014558 | 52 | 0 | 0.0 | 0.0 | 0.00 | 0.23 | 0.07 | 91 | 1011.4 |
| 20260503013056 | 52 | 0 | 0.0 | 0.0 | 0.00 | 0.23 | 0.07 | 91 | 1011.1 |
| 20260503011605 | 53 | 0 | 0.0 | 0.0 | 0.00 | 0.22 | 0.06 | 90 | 1011.0 |
| 20260503010052 | 53 | 0 | 0.0 | 0.0 | 0.00 | 0.22 | 0.06 | 88 | 1011.0 |
| 20260503004549 | 53 | 0 | 0.0 | 0.0 | 0.00 | 0.22 | 0.06 | 87 | 1010.9 |
| 20260503003052 | 52 | 0 | 0.0 | 0.0 | 0.00 | 0.22 | 0.06 | 90 | 1011.0 |
| 20260503001554 | 51 | 0 | 0.0 | 0.0 | 0.00 | 0.25 | 0.06 | 92 | 1011.0 |
| 20260503000107 | 51 | 0 | 0.0 | 0.0 | 0.00 | 0.25 | 0.06 | 92 | 1011.1 |
| 20260502234551 | 51 | 0 | 0.0 | 0.0 | 0.00 | 0.25 | 0.06 | 90 | 1011.0 |
| 20260502233055 | 52 | 0 | 0.0 | 0.0 | 0.00 | 0.25 | 0.06 | 90 | 1011.2 |
| 20260502231614 | 51 | 0 | 0.0 | 0.0 | 0.00 | 0.25 | 0.06 | 90 | 1011.0 |
| 20260502230051 | 50 | 0 | 0.0 | 0.0 | 0.00 | 0.25 | 0.06 | 92 | 1010.9 |
| 20260502224558 | 50 | 0 | 0.0 | 0.0 | 0.00 | 0.25 | 0.06 | 94 | 1011.2 |
| 20260502223054 | 49 | 0 | 0.0 | 0.0 | 0.00 | 0.25 | 0.06 | 94 | 1011.0 |
| 20260502221557 | 49 | 0 | 0.0 | 0.0 | 0.03 | 0.25 | 0.06 | 94 | 1011.4 |